Wheaton NDB, MN

4:18 AM CDT on August 24, 2017 (GMT -0500)
Wheaton Municipal

Weather History for KETH - January, 2013

Change the Weather History Date:

Wednesday, January 30, 2013

  Actual Average Record
Temperature  
Mean Temperature 5 °F -  
Max Temperature 15 °F 24 °F 49 °F (1992)
Min Temperature -5 °F 1 °F -30 °F (1951)
Degree Days  
Heating Degree Days 60    
Moisture  
Dew Point 1 °F    
Average Humidity 81    
Maximum Humidity 92    
Minimum Humidity 71    
Precipitation  
Precipitation 0.00 in - - ()
Sea Level Pressure  
Sea Level Pressure 29.88 in    
Wind  
Wind Speed 17 mph (NW)    
Max Wind Speed 21 mph    
Max Gust Speed 30 mph    
Visibility 8 miles    
Events Snow    
Averages and records for this station are not official NWS values.
T = Trace of Precipitation, MM = Missing Value Source: NWS Daily Summary

Daily Weather History Graph

Daily Weather History Graph

Search for Another Location

Airport or City:

Trip Planner

Search our weather history database for the weather conditions in past years. The results will help you decide how hot, cold, wet, or windy it might be!

Date:

Astronomy

Jan. 30, 2013 Rise Set
Actual Time 7:49 AM CST 5:29 PM CST
Civil Twilight 7:17 AM CST 6:01 PM CST
Nautical Twilight 6:42 AM CST 6:37 PM CST
Astronomical Twilight 6:07 AM CST 7:12 PM CST
Moon 9:45 PM CST (1/30) 9:04 AM CST (1/30)
Length of Visible Light 10h 43m
Length of Day
9h 39m
Waning Gibbous, 87% of the Moon is Illuminated
Jan 30
Waning Gibbous
Feb 3
Last Quarter
Feb 10
New
Feb 17
First Quarter
Feb 25
Full

Hourly Weather History & Observations

Time (CST) Temp. Windchill Dew Point Humidity Pressure Visibility Wind Dir Wind Speed Gust Speed Precip Events Conditions
12:15 AM 15.8 °F 0.3 °F 10.4 °F 79% 29.90 in 10.0 mi NNW 16.1 mph - N/A Snow Light Snow
12:35 AM 15.8 °F 0.9 °F 10.4 °F 79% 29.90 in 7.0 mi NNW 15.0 mph 23.0 mph N/A Snow Light Snow
12:55 AM 15.8 °F -0.2 °F 12.2 °F 86% 29.90 in 10.0 mi NNW 17.3 mph - N/A Snow Light Snow
1:15 AM 14.0 °F -2.5 °F 10.4 °F 86% 29.90 in 10.0 mi NNW 17.3 mph 24.2 mph N/A   Overcast
1:55 AM 14.0 °F -0.8 °F 10.4 °F 86% 29.89 in 10.0 mi NNW 13.8 mph - N/A Snow Light Snow
2:15 AM 14.0 °F -0.2 °F 10.4 °F 86% 29.89 in 10.0 mi NNW 12.7 mph - N/A Snow Light Snow
2:35 AM 14.0 °F -1.4 °F 10.4 °F 86% 29.89 in 10.0 mi NNW 15.0 mph - N/A Snow Light Snow
2:55 AM 14.0 °F -0.8 °F 10.4 °F 86% 29.89 in 7.0 mi NNW 13.8 mph - N/A Snow Light Snow
3:15 AM 14.0 °F -2.0 °F 10.4 °F 86% 29.88 in 7.0 mi NNW 16.1 mph 24.2 mph N/A Snow Light Snow
3:35 AM 12.2 °F -3.1 °F 10.4 °F 92% 29.89 in 7.0 mi NNW 13.8 mph 19.6 mph N/A Snow Light Snow
3:55 AM 12.2 °F -4.8 °F 8.6 °F 85% 29.89 in 10.0 mi NNW 17.3 mph 25.3 mph N/A Snow Light Snow
4:15 AM 12.2 °F -3.7 °F 8.6 °F 85% 29.90 in 10.0 mi NNW 15.0 mph 23.0 mph N/A Snow Light Snow
4:35 AM 12.2 °F -3.1 °F 8.6 °F 85% 29.90 in 7.0 mi NNW 13.8 mph 18.4 mph N/A Snow Light Snow
4:55 AM 10.4 °F -4.8 °F 8.6 °F 92% 29.90 in 7.0 mi NNW 12.7 mph - N/A Snow Light Snow
5:15 AM 10.4 °F -6.0 °F 8.6 °F 92% 29.89 in 10.0 mi NNW 15.0 mph 20.7 mph N/A Snow Light Snow
5:35 AM 10.4 °F -6.0 °F 6.8 °F 85% 29.89 in 10.0 mi NNW 15.0 mph 20.7 mph N/A Snow Light Snow
5:55 AM 10.4 °F -5.4 °F 6.8 °F 85% 29.89 in 7.0 mi NNW 13.8 mph 21.9 mph N/A Snow Light Snow
6:15 AM 10.4 °F -8.6 °F 6.8 °F 85% 29.89 in 7.0 mi NNW 20.7 mph 27.6 mph N/A Snow Light Snow
6:35 AM 8.6 °F -11.0 °F 5.0 °F 85% 29.89 in 10.0 mi NNW 20.7 mph 29.9 mph N/A   Overcast
6:55 AM 8.6 °F -10.5 °F 3.2 °F 79% 29.89 in 10.0 mi NNW 19.6 mph 24.2 mph N/A   Overcast
7:15 AM 8.6 °F -11.0 °F 3.2 °F 79% 29.88 in 10.0 mi NW 20.7 mph 29.9 mph N/A   Overcast
7:35 AM 8.6 °F -9.5 °F 5.0 °F 85% 29.88 in 10.0 mi NW 17.3 mph 24.2 mph N/A   Overcast
7:55 AM 8.6 °F -10.0 °F 5.0 °F 85% 29.89 in 10.0 mi NW 18.4 mph 24.2 mph N/A   Overcast
8:15 AM 8.6 °F -9.5 °F 5.0 °F 85% 29.89 in 10.0 mi NW 17.3 mph 26.5 mph N/A   Overcast
8:35 AM 8.6 °F -10.5 °F 5.0 °F 85% 29.89 in 10.0 mi NW 19.6 mph 26.5 mph N/A   Overcast
8:55 AM 8.6 °F -10.5 °F 5.0 °F 85% 29.88 in 10.0 mi NW 19.6 mph 27.6 mph N/A   Overcast
9:15 AM 8.6 °F -8.9 °F 5.0 °F 85% 29.89 in 10.0 mi NW 16.1 mph 24.2 mph N/A Snow Light Snow
9:35 AM 8.6 °F -9.5 °F 5.0 °F 85% 29.89 in 10.0 mi NW 17.3 mph 20.7 mph N/A   Overcast
9:55 AM 10.4 °F -6.0 °F 5.0 °F 79% 29.88 in 10.0 mi NW 15.0 mph - N/A Snow Light Snow
10:15 AM 10.4 °F -6.0 °F 6.8 °F 85% 29.88 in 7.0 mi NW 15.0 mph - N/A Snow Light Snow
10:35 AM 10.4 °F -7.7 °F 6.8 °F 85% 29.88 in 10.0 mi NW 18.4 mph - N/A Snow Light Snow
10:55 AM 10.4 °F -7.7 °F 6.8 °F 85% 29.88 in 4.0 mi WNW 18.4 mph 26.5 mph N/A Snow Light Snow
11:15 AM 8.6 °F -9.5 °F 5.0 °F 85% 29.88 in 3.0 mi WNW 17.3 mph - N/A Snow Light Snow
11:35 AM 8.6 °F -10.0 °F 3.2 °F 79% 29.88 in 5.0 mi WNW 18.4 mph 23.0 mph N/A Snow Light Snow
11:55 AM 8.6 °F -9.5 °F 3.2 °F 79% 29.87 in 7.0 mi WNW 17.3 mph 26.5 mph N/A Snow Light Snow
12:15 PM 8.6 °F -11.0 °F 3.2 °F 79% 29.87 in 3.0 mi WNW 20.7 mph 28.8 mph N/A Snow Light Snow
12:35 PM 8.6 °F -10.5 °F 3.2 °F 79% 29.87 in 4.0 mi WNW 19.6 mph 24.2 mph N/A Snow Light Snow
12:55 PM 8.6 °F -9.5 °F 3.2 °F 79% 29.86 in 4.0 mi NW 17.3 mph 24.2 mph N/A Snow Light Snow
1:15 PM 8.6 °F -10.0 °F 1.4 °F 73% 29.86 in 7.0 mi WNW 18.4 mph 25.3 mph N/A Snow Light Snow
1:35 PM 6.8 °F -13.4 °F 1.4 °F 79% 29.86 in 7.0 mi WNW 20.7 mph 24.2 mph N/A   Mostly Cloudy
1:55 PM 6.8 °F -12.9 °F 1.4 °F 79% 29.86 in 7.0 mi WNW 19.6 mph 24.2 mph N/A   Overcast
2:15 PM 6.8 °F -13.4 °F 1.4 °F 79% 29.85 in 7.0 mi WNW 20.7 mph 26.5 mph N/A   Overcast
2:35 PM 6.8 °F -12.9 °F 1.4 °F 79% 29.86 in 7.0 mi WNW 19.6 mph 24.2 mph N/A   Overcast
2:55 PM 6.8 °F -12.9 °F 1.4 °F 79% 29.86 in 7.0 mi WNW 19.6 mph 25.3 mph N/A   Mostly Cloudy
3:15 PM 6.8 °F -12.9 °F -0.4 °F 72% 29.86 in 7.0 mi WNW 19.6 mph - N/A   Overcast
3:35 PM 5.0 °F -13.6 °F -0.4 °F 78% 29.86 in 7.0 mi WNW 16.1 mph 25.3 mph N/A   Overcast
3:55 PM 5.0 °F -15.2 °F -0.4 °F 78% 29.86 in 10.0 mi WNW 19.6 mph 23.0 mph N/A   Overcast
4:15 PM 3.2 °F -17.1 °F -0.4 °F 85% 29.87 in 10.0 mi WNW 18.4 mph 23.0 mph N/A   Overcast
4:35 PM 3.2 °F -17.1 °F -2.2 °F 78% 29.87 in 10.0 mi WNW 18.4 mph 21.9 mph N/A   Overcast
4:55 PM 3.2 °F -14.6 °F -2.2 °F 78% 29.87 in 10.0 mi WNW 13.8 mph 20.7 mph N/A   Overcast
5:15 PM 3.2 °F -15.3 °F -2.2 °F 78% 29.87 in 10.0 mi WNW 15.0 mph 21.9 mph N/A   Overcast
5:35 PM 1.4 °F -18.8 °F -4.0 °F 78% 29.87 in 10.0 mi WNW 17.3 mph 23.0 mph N/A   Overcast
5:55 PM -0.4 °F -19.9 °F -5.8 °F 78% 29.87 in 10.0 mi WNW 15.0 mph - N/A   Mostly Cloudy
6:14 PM -0.4 °F -17.6 °F -5.8 °F 78% 29.88 in 10.0 mi WNW 11.5 mph - N/A   Clear
6:35 PM -0.4 °F -19.2 °F -7.6 °F 72% 29.89 in 10.0 mi WNW 13.8 mph 19.6 mph N/A   Clear
6:55 PM -2.2 °F -22.2 °F -7.6 °F 78% 29.89 in 10.0 mi West 15.0 mph 21.9 mph N/A   Mostly Cloudy
7:15 PM -0.4 °F -21.2 °F -7.6 °F 72% 29.89 in 10.0 mi WNW 17.3 mph 25.3 mph N/A   Overcast
7:35 PM -2.2 °F -23.5 °F -7.6 °F 78% 29.89 in 7.0 mi WNW 17.3 mph - N/A   Overcast
7:55 PM -2.2 °F -24.7 °F -7.6 °F 78% 29.88 in 5.0 mi WNW 19.6 mph 23.0 mph N/A Snow Light Snow
8:15 PM -2.2 °F -22.9 °F -7.6 °F 78% 29.89 in 7.0 mi WNW 16.1 mph - N/A   Overcast
8:35 PM -2.2 °F -24.7 °F -9.4 °F 71% 29.89 in 7.0 mi WNW 19.6 mph 25.3 mph N/A   Overcast
8:55 PM -2.2 °F -23.5 °F -9.4 °F 71% 29.89 in 10.0 mi WNW 17.3 mph 21.9 mph N/A   Overcast
9:15 PM -4.0 °F -25.2 °F -9.4 °F 78% 29.89 in 10.0 mi WNW 16.1 mph - N/A   Overcast
9:35 PM -4.0 °F -25.8 °F -9.4 °F 78% 29.90 in 10.0 mi WNW 17.3 mph 21.9 mph N/A   Overcast
9:55 PM -4.0 °F -26.4 °F -9.4 °F 78% 29.90 in 10.0 mi WNW 18.4 mph 23.0 mph N/A   Overcast
10:15 PM -5.8 °F -28.2 °F -11.2 °F 77% 29.91 in 10.0 mi WNW 17.3 mph - N/A   Overcast
10:35 PM -5.8 °F -27.5 °F -11.2 °F 77% 29.91 in 10.0 mi WNW 16.1 mph 24.2 mph N/A   Overcast
10:55 PM -5.8 °F -28.2 °F -11.2 °F 77% 29.91 in 7.0 mi WNW 17.3 mph - N/A   Overcast
11:15 PM -5.8 °F -28.2 °F -11.2 °F 77% 29.92 in 5.0 mi WNW 17.3 mph 23.0 mph N/A   Haze
11:35 PM -5.8 °F -25.2 °F -11.2 °F 77% 29.92 in 5.0 mi WNW 12.7 mph 25.3 mph N/A Snow Light Snow
11:55 PM -5.8 °F -27.5 °F -11.2 °F 77% 29.93 in 5.0 mi WNW 16.1 mph 20.7 mph N/A Snow Light Snow